Location: Barcelona
(41.3830°N, 2.1830°E)
Time: 16:51:26
(UTC+02:00)

CAS-4B - Visible Passes

Search period start: 19 October 2019 00:00
Search period end: 28 October 2019 23:00
Orbit: 528 x 546 km, 43.0° (Epoch: 19 October)

Date Brightness Start Highest point End Pass type
(mag) Time Alt. Az. Time Alt. Az. Time Alt. Az.
19 Oct ? 21:05:34 10° SSW 21:07:07 19° S 21:07:07 19° S visible
20 Oct ? 20:55:09 10° SW 20:57:53 29° S 20:57:53 29° S visible
21 Oct ? 20:44:50 10° SW 20:48:31 41° SSE 20:48:31 41° SSE visible
22 Oct ? 20:34:33 10° SW 20:38:31 50° SSE 20:39:05 46° SE visible
23 Oct ? 20:24:20 10° WSW 20:28:22 60° SSE 20:29:34 40° E visible
23 Oct ? 22:04:27 10° W 22:04:56 13° W 22:04:56 13° W visible
24 Oct ? 20:14:09 10° WSW 20:18:13 70° SSE 20:19:59 32° E visible
24 Oct ? 21:54:22 10° W 21:55:21 17° W 21:55:21 17° W visible
25 Oct ? 20:04:00 10° WSW 20:08:06 81° SSE 20:10:21 26° ENE visible
25 Oct ? 21:44:17 10° W 21:45:43 21° W 21:45:43 21° W visible
26 Oct ? 19:53:53 10° WSW 19:57:58 90° NW 20:00:41 21° ENE visible
26 Oct ? 21:34:12 10° W 21:36:03 25° WNW 21:36:03 25° WNW visible
27 Oct ? 18:43:47 10° W 18:47:52 82° N 18:51:00 17° ENE visible
27 Oct ? 20:24:06 10° WNW 20:26:22 31° WNW 20:26:22 31° WNW visible
28 Oct ? 18:33:41 10° W 18:37:46 76° N 18:41:19 14° ENE visible
28 Oct ? 20:14:00 10° WNW 20:16:40 39° WNW 20:16:40 39° WNW visible
